This is the latest recevied weather packets stored in our database for station/object K7KRJ-10. If no packets are shown the sender has not sent any weather packets the latest 10 day(s).
| Time | Temp. | Humidity | Pressure | Rain* | Wind** | Luminosity | Snow |
|---|---|---|---|---|---|---|---|
| 1777750808 | 32.22° C | 17% | 1011.3 hPa | 0 mm | - | 1106 W/m² | - |
| 1777749904 | 31.11° C | 18% | 1011.6 hPa | 0 mm | - | 1066 W/m² | - |
| 1777749002 | 31.11° C | 20% | 1011.8 hPa | 0 mm | - | 1053 W/m² | - |
| 1777748097 | 31.11° C | 20% | 1012 hPa | 0 mm | - | 1047 W/m² | - |
| 1777747192 | 30.56° C | 20% | 1012.2 hPa | 0 mm | - | 1033 W/m² | - |
| 1777746291 | 30.56° C | 21% | 1012.4 hPa | 0 mm | - | 1014 W/m² | - |
| 1777745390 | 30.56° C | 21% | 1012.8 hPa | 0 mm | - | 990 W/m² | - |
| 1777744489 | 30° C | 22% | 1012.7 hPa | 0 mm | - | 958 W/m² | - |
| 1777743586 | 30.56° C | 22% | 1012.8 hPa | 0 mm | - | 933 W/m² | - |
| 1777742684 | 29.44° C | 23% | 1012.7 hPa | 0 mm | - | 885 W/m² | - |
| 1777741779 | 29.44° C | 23% | 1012.8 hPa | 0 mm | - | 851 W/m² | - |
| 1777740875 | 28.89° C | 24% | 1012.9 hPa | 0 mm | - | 806 W/m² | - |
| 1777739971 | 28.33° C | 24% | 1013 hPa | 0 mm | - | 756 W/m² | - |
| 1777739067 | 28.33° C | 20% | 1012.9 hPa | 0 mm | - | 703 W/m² | - |
| 1777738164 | 28.33° C | 20% | 1012.8 hPa | 0 mm | - | 654 W/m² | - |
| 1777737259 | 27.78° C | 19% | 1012.8 hPa | 0 mm | - | 606 W/m² | - |
| 1777735455 | 27.22° C | 20% | 1012.4 hPa | 0 mm | - | 493 W/m² | - |
| 1777734552 | 26.67° C | 19% | 1012.4 hPa | 0 mm | - | 168 W/m² | - |
| 1777733647 | 27.78° C | 19% | 1012.2 hPa | 0 mm | - | 363 W/m² | - |
| 1777732742 | 27.22° C | 20% | 1012.2 hPa | 0 mm | - | 303 W/m² | - |
| 1777731839 | 26.67° C | 21% | 1012.1 hPa | 0 mm | - | 237 W/m² | - |
| 1777730938 | 25° C | 22% | 1012 hPa | 0 mm | - | 176 W/m² | - |
| 1777730034 | 24.44° C | 23% | 1011.9 hPa | 0 mm | - | 120 W/m² | - |
| 1777729135 | 22.22° C | 25% | 1011.6 hPa | 0 mm | - | 81 W/m² | - |
| 1777728232 | 22.22° C | 24% | 1011.3 hPa | 0 mm | - | 52 W/m² | - |
* Rain latest hour (hover to see other rain measurements)
** Current wind speed in m/s (hover to see current wind gust speed)